sat.trackr.live / text

‹ back to catalog

YUNHAI-1 02

NORAD 44547 · 2019-063A

PAYLOAD ACTIVE UNKNOWN

§ Identity

Operator
Country
PRC
Launch date
2019-09-25
Launch site
JSC
Launch vehicle
Mass (kg)
RCS (m²)

External: N2YO · Heavens-Above · Gunter

§ Orbital elements

Epoch: 2026-09-20T04:25:56.603424Z

Period
100.52 min
Inclination
98.4149°
Eccentricity
0.0005108
Mean motion
14.32600947 rev/d
Perigee alt
779.4 km
Apogee alt
786.7 km
Semi-major
7,161.2 km
B*
8.7653e-5
RAAN
270.8796°
Arg perigee
232.2011°
Mean anomaly
127.8712°
Rev number
36,547

§ Raw data

YUNHAI-1 021 44547U 19063A   26263.18468291  .00000195  00000+0  87653-4 0  99982 44547  98.4149 270.8796 0005108 232.2011 127.8712 14.32600947365474

JSON: /api/v1/satellites/44547 · /tle

For live sub-satellite position, see the globe view (requires WebGL).

§ Visibility from observer

Set your observer location to see the next 7 days of passes ≥ 10°. The values pass through the URL so the page stays shareable.

No JS? Fill the form by hand. The geolocation button needs JavaScript.

§ Radio — SatNOGS DB

ModeDescriptionDownlinkUplink
BPSK L-band data 1.704 GHz

1 transmitter · refreshed weekly from db.satnogs.org